Precipitable_Water
0.50 0.49 0.48 0.47 0.45 0.44 0.44 0.42 0.44 0.46 0.47 0.47 0.48 0.49 0.50 0.47 0.40 0.36 0.20 0.25 0.31 0.37 0.38 0.42 0.41 0.49 0.71 0.64 0.79 0.81 0.78 0.70 0.71 0.70 0.78 0.95 0.87 1.08 1.08 1.01 1.07 1.09 0.93 1.27 1.50
0.51 0.50 0.49 0.48 0.46 0.45 0.44 0.43 0.43 0.45 0.48 0.47 0.48 0.49 0.51 0.49 0.34 0.24 0.31 0.41 0.38 0.36 0.24 0.37 0.43 0.54 0.52 0.53 0.58 0.65 0.71 0.71 0.82 0.82 0.72 0.75 0.86 0.91 0.97 0.82 0.87 1.04 1.23 1.47 1.43
0.52 0.51 0.50 0.48 0.47 0.46 0.45 0.44 0.43 0.45 0.48 0.48 0.48 0.50 0.51 0.50 0.41 0.41 0.50 0.42 0.39 0.33 0.26 0.37 0.45 0.46 0.40 0.46 0.47 0.57 0.61 0.75 0.82 0.91 0.81 0.73 0.79 0.85 0.85 0.76 0.80 0.86 1.10 1.27 1.29
0.52 0.50 0.49 0.47 0.46 0.46 0.45 0.44 0.43 0.45 0.48 0.49 0.49 0.50 0.51 0.44 0.27 0.52 0.43 0.41 0.40 0.28 0.33 0.38 0.41 0.35 0.29 0.31 0.42 0.43 0.58 0.72 0.75 1.00 0.83 0.78 0.64 0.72 0.75 0.84 0.98 0.93 1.13 1.15 1.18
0.51 0.50 0.49 0.47 0.46 0.45 0.45 0.44 0.43 0.44 0.48 0.50 0.50 0.51 0.44 0.31 0.34 0.58 0.46 0.42 0.32 0.27 0.33 0.40 0.36 0.31 0.25 0.30 0.36 0.42 0.54 0.64 0.72 0.73 0.71 0.73 0.68 0.63 0.79 1.00 1.08 1.18 1.17 1.16 1.24
0.50 0.49 0.47 0.45 0.43 0.43 0.43 0.43 0.43 0.43 0.49 0.52 0.52 0.50 0.36 0.22 0.57 0.55 0.41 0.31 0.26 0.28 0.34 0.37 0.31 0.33 0.29 0.31 0.33 0.46 0.49 0.52 0.70 0.70 0.70 0.65 0.66 0.61 0.78 0.97 1.02 1.24 1.13 1.24 1.28
0.50 0.48 0.46 0.44 0.43 0.42 0.41 0.41 0.42 0.43 0.49 0.52 0.52 0.48 0.30 0.22 0.52 0.51 0.32 0.30 0.31 0.32 0.34 0.36 0.34 0.30 0.31 0.29 0.44 0.51 0.47 0.46 0.58 0.68 0.67 0.76 0.60 0.52 0.65 0.85 0.99 1.28 1.15 1.28 1.27
0.49 0.47 0.45 0.44 0.42 0.41 0.40 0.39 0.41 0.43 0.51 0.54 0.55 0.49 0.21 0.52 0.54 0.45 0.36 0.34 0.39 0.47 0.47 0.42 0.36 0.29 0.29 0.36 0.40 0.41 0.46 0.44 0.57 0.65 0.72 0.72 0.47 0.59 0.73 0.85 1.03 1.57 1.20 1.26 1.25
0.49 0.49 0.47 0.45 0.43 0.41 0.40 0.38 0.42 0.48 0.57 0.59 0.51 0.55 0.27 0.55 0.43 0.46 0.44 0.40 0.47 0.49 0.47 0.41 0.40 0.33 0.37 0.32 0.29 0.32 0.40 0.59 0.67 0.68 0.66 0.66 0.52 0.66 0.81 0.76 1.00 1.25 1.46 1.46 1.28
0.50 0.49 0.48 0.47 0.45 0.45 0.42 0.42 0.58 0.68 0.72 0.66 0.52 0.34 0.39 0.35 0.47 0.46 0.45 0.50 0.46 0.39 0.34 0.32 0.34 0.29 0.30 0.31 0.21 0.37 0.54 0.66 0.63 0.60 0.55 0.51 0.49 0.71 0.77 0.82 1.04 1.22 1.43 1.38 1.38
0.51 0.49 0.48 0.48 0.47 0.47 0.41 0.51 0.47 0.55 0.55 0.39 0.43 0.27 0.36 0.51 0.53 0.47 0.41 0.45 0.45 0.36 0.26 0.33 0.25 0.18 0.24 0.33 0.37 0.40 0.46 0.54 0.58 0.68 0.60 0.53 0.45 0.58 0.74 0.82 1.03 1.01 0.97 1.01 0.98
0.54 0.52 0.50 0.49 0.47 0.46 0.45 0.41 0.42 0.41 0.29 0.34 0.35 0.39 0.42 0.45 0.42 0.47 0.49 0.37 0.36 0.28 0.32 0.29 0.23 0.28 0.31 0.35 0.37 0.39 0.37 0.41 0.48 0.56 0.63 0.58 0.47 0.51 0.59 0.69 0.70 0.86 1.03 1.14 1.19
0.53 0.52 0.51 0.50 0.48 0.48 0.47 0.43 0.49 0.42 0.31 0.29 0.29 0.27 0.30 0.33 0.35 0.41 0.46 0.38 0.33 0.30 0.31 0.27 0.26 0.34 0.32 0.28 0.28 0.30 0.30 0.31 0.35 0.46 0.55 0.54 0.45 0.49 0.59 0.64 0.68 0.87 1.05 1.08 1.42
0.50 0.49 0.49 0.47 0.41 0.45 0.47 0.55 0.46 0.44 0.26 0.24 0.26 0.28 0.31 0.31 0.26 0.41 0.51 0.42 0.33 0.31 0.35 0.34 0.35 0.35 0.34 0.28 0.28 0.22 0.28 0.30 0.37 0.36 0.31 0.39 0.26 0.40 0.53 0.56 0.63 0.68 0.70 0.86 1.18
0.49 0.47 0.45 0.46 0.41 0.40 0.50 0.52 0.43 0.41 0.16 0.29 0.28 0.34 0.32 0.27 0.27 0.28 0.38 0.43 0.30 0.34 0.39 0.31 0.36 0.36 0.34 0.30 0.27 0.21 0.25 0.28 0.37 0.36 0.31 0.24 0.22 0.39 0.56 0.55 0.66 0.68 0.75 0.76 1.03
0.47 0.46 0.44 0.39 0.41 0.44 0.51 0.47 0.38 0.24 0.16 0.26 0.28 0.26 0.25 0.27 0.27 0.29 0.29 0.45 0.44 0.37 0.39 0.37 0.44 0.41 0.34 0.30 0.28 0.27 0.24 0.26 0.31 0.30 0.20 0.24 0.26 0.36 0.45 0.55 0.63 0.69 0.80 0.91 1.12
0.45 0.42 0.41 0.38 0.25 0.44 0.42 0.32 0.20 0.18 0.25 0.20 0.25 0.28 0.26 0.24 0.24 0.25 0.25 0.34 0.33 0.29 0.28 0.36 0.36 0.41 0.38 0.29 0.29 0.28 0.23 0.17 0.18 0.20 0.25 0.39 0.39 0.52 0.57 0.65 0.68 0.71 0.90 1.14 1.08
0.47 0.42 0.38 0.34 0.34 0.42 0.38 0.24 0.15 0.21 0.18 0.27 0.26 0.28 0.24 0.26 0.25 0.23 0.23 0.26 0.37 0.36 0.33 0.31 0.25 0.37 0.36 0.32 0.28 0.28 0.26 0.21 0.15 0.19 0.29 0.40 0.34 0.58 0.67 0.84 0.81 1.08 1.09 0.94 1.04
0.51 0.42 0.38 0.40 0.38 0.46 0.32 0.18 0.15 0.17 0.27 0.30 0.27 0.23 0.24 0.26 0.26 0.27 0.24 0.23 0.26 0.34 0.30 0.32 0.32 0.49 0.51 0.44 0.38 0.31 0.27 0.31 0.25 0.28 0.26 0.29 0.41 0.66 0.83 0.93 0.94 1.02 1.01 0.92 0.97
0.43 0.43 0.36 0.47 0.49 0.43 0.31 0.21 0.19 0.19 0.28 0.29 0.23 0.25 0.20 0.23 0.21 0.22 0.26 0.27 0.29 0.33 0.43 0.34 0.33 0.45 0.49 0.47 0.39 0.37 0.33 0.27 0.27 0.20 0.18 0.24 0.44 0.50 0.73 0.80 0.91 1.04 1.15 1.14 1.02
0.39 0.41 0.55 0.59 0.54 0.34 0.27 0.26 0.21 0.23 0.28 0.28 0.25 0.24 0.22 0.22 0.22 0.21 0.24 0.29 0.36 0.37 0.41 0.40 0.38 0.36 0.44 0.40 0.36 0.37 0.31 0.27 0.28 0.30 0.23 0.23 0.39 0.73 0.75 0.89 0.87 1.00 1.32 1.19 1.10
0.33 0.30 0.51 0.57 0.39 0.38 0.30 0.31 0.30 0.24 0.31 0.28 0.27 0.25 0.23 0.23 0.22 0.24 0.29 0.28 0.35 0.40 0.35 0.39 0.37 0.32 0.34 0.41 0.44 0.39 0.34 0.32 0.23 0.21 0.32 0.36 0.49 0.80 0.81 0.81 0.82 0.83 1.08 1.56 1.22
0.26 0.44 0.58 0.54 0.32 0.32 0.35 0.34 0.35 0.30 0.30 0.28 0.26 0.24 0.23 0.22 0.22 0.27 0.34 0.39 0.38 0.41 0.39 0.41 0.36 0.31 0.30 0.34 0.41 0.36 0.39 0.35 0.33 0.31 0.26 0.29 0.46 0.82 0.81 0.75 0.77 0.76 0.97 1.18 1.38
0.31 0.29 0.40 0.51 0.46 0.37 0.34 0.34 0.33 0.35 0.30 0.31 0.29 0.29 0.22 0.18 0.24 0.26 0.32 0.38 0.43 0.48 0.52 0.47 0.44 0.35 0.26 0.30 0.42 0.42 0.40 0.39 0.35 0.30 0.28 0.31 0.50 0.64 0.67 0.72 0.77 0.85 1.11 1.28 1.42
0.42 0.47 0.54 0.42 0.41 0.45 0.42 0.33 0.33 0.38 0.42 0.31 0.29 0.30 0.24 0.19 0.19 0.23 0.28 0.35 0.43 0.48 0.43 0.44 0.37 0.42 0.41 0.40 0.39 0.41 0.46 0.44 0.43 0.39 0.32 0.33 0.43 0.57 0.72 0.76 0.94 1.16 1.24 1.26 1.41
0.42 0.41 0.51 0.49 0.51 0.47 0.47 0.41 0.34 0.37 0.46 0.39 0.31 0.31 0.28 0.24 0.26 0.21 0.26 0.32 0.40 0.50 0.48 0.44 0.35 0.41 0.36 0.42 0.51 0.47 0.52 0.52 0.52 0.48 0.37 0.43 0.51 0.78 0.82 0.85 0.89 0.96 1.03 1.24 1.31
0.49 0.53 0.44 0.42 0.45 0.42 0.43 0.42 0.41 0.43 0.42 0.48 0.47 0.37 0.29 0.29 0.36 0.40 0.39 0.38 0.45 0.56 0.55 0.56 0.48 0.43 0.32 0.42 0.48 0.43 0.50 0.53 0.58 0.51 0.47 0.37 0.51 0.68 0.64 0.69 0.73 0.86 1.07 1.31 1.27
Wind_Speed
5 5 4 4 4 4 4 4 5 5 5 6 6 6 6 6 6 5 4 3 1 2 1 2 4 5 5 4 3 1 3 3 2 3 2 4 6 4 8 3 7 7 7 5 6
7 7 6 6 6 6 5 5 6 6 6 6 7 7 7 7 7 7 6 4 3 3 3 4 4 5 5 4 3 4 4 3 2 2 5 7 5 12 5 6 6 4 4 7 6
9 8 8 8 8 8 7 7 7 7 7 7 7 7 7 6 6 5 6 6 4 4 4 4 4 4 5 5 5 5 5 5 6 6 6 7 6 6 1 8 4 2 4 5 5
10 10 10 10 9 9 9 9 9 8 8 8 7 7 6 6 4 5 5 7 6 5 5 5 4 4 4 5 6 7 10 9 9 8 7 8 4 3 7 7 5 4 4 5 4
11 11 11 11 11 11 11 10 10 10 9 9 8 7 7 7 8 6 6 7 7 7 6 6 5 5 6 6 7 8 8 9 10 10 9 10 3 5 7 5 3 3 4 5 4
12 12 12 12 12 12 12 12 12 11 11 10 9 8 8 8 7 7 8 8 8 8 8 7 7 6 7 8 9 9 11 10 9 10 10 7 6 6 7 6 4 7 6 7 5
12 12 12 13 13 13 13 13 13 13 12 11 11 10 11 11 8 8 8 9 9 9 9 8 9 8 8 9 8 11 12 10 9 10 9 12 8 7 8 8 9 13 9 9 8
13 13 13 13 13 13 14 15 14 14 13 11 11 11 12 10 10 10 9 10 10 9 10 9 10 11 10 11 12 10 10 7 12 13 11 8 10 8 6 10 13 20 9 10 8
13 14 14 14 14 14 14 15 15 14 13 13 12 11 12 12 13 13 12 12 12 12 10 10 10 10 11 10 10 9 7 5 16 19 13 5 9 9 7 16 8 7 16 11 8
14 14 14 14 14 14 15 15 13 13 13 13 14 12 13 13 12 14 15 14 11 11 10 10 9 10 10 9 8 9 2 7 7 9 5 10 15 10 10 7 9 5 16 6 5
14 15 15 15 15 14 13 12 12 13 14 16 13 15 13 11 9 12 14 14 13 12 12 11 9 12 13 13 13 12 11 9 12 12 6 10 12 9 9 8 2 3 4 18 16
15 15 16 16 16 15 14 13 11 15 17 20 22 22 20 17 13 14 15 14 14 14 13 12 13 14 15 16 15 15 13 11 10 13 9 12 10 10 9 10 12 5 6 11 11
17 17 18 18 18 15 15 17 15 16 17 19 22 21 21 20 18 16 17 17 15 16 15 14 14 13 15 15 15 14 13 12 12 11 10 9 13 12 12 11 8 7 7 11 15
19 19 19 20 17 16 15 13 15 15 15 17 17 19 21 19 20 20 21 18 17 18 17 17 18 17 14 14 14 14 13 14 13 10 10 10 13 12 10 11 9 9 13 13 17
20 20 20 19 20 18 16 15 15 13 13 12 13 12 15 22 13 17 23 21 20 20 16 17 16 15 16 15 13 13 14 12 9 8 10 13 11 11 6 8 9 10 9 7 6
21 20 20 17 20 20 20 18 15 13 15 12 12 12 13 16 20 15 20 21 19 21 21 21 19 17 15 15 16 13 12 12 9 9 12 11 10 11 10 8 9 5 4 4 3
21 21 20 19 17 16 16 15 14 16 12 13 13 14 15 16 19 17 16 20 17 16 19 19 20 18 14 12 13 13 9 9 9 8 10 9 7 9 11 12 7 6 3 2 1
22 22 20 20 19 16 15 15 17 16 18 10 10 16 16 14 19 18 16 17 19 19 14 15 14 17 15 14 13 13 12 9 10 9 10 9 10 8 9 12 10 8 4 1 1
22 20 21 20 20 18 15 17 16 15 14 10 13 14 13 15 15 19 19 17 17 20 19 12 17 14 18 16 14 13 13 15 12 13 13 12 10 6 5 4 5 8 6 3 2
20 20 21 22 21 20 18 17 17 17 17 15 15 12 14 15 13 15 19 19 17 19 21 19 17 15 13 17 16 11 13 9 10 10 13 12 8 11 7 12 8 5 9 7 4
17 17 19 23 21 21 20 19 18 19 19 15 15 15 13 12 13 15 17 17 19 16 20 21 17 18 12 8 14 12 11 14 12 10 9 6 10 10 10 10 11 8 11 12 9
16 16 16 21 20 21 24 20 19 22 21 19 18 17 17 17 16 15 13 18 12 19 18 20 18 16 19 17 13 15 14 15 11 15 11 8 8 7 10 11 14 18 17 15 11
16 18 19 20 20 22 22 25 27 25 25 20 17 17 19 19 16 14 13 11 11 11 15 14 18 14 13 14 14 15 14 15 15 12 14 10 11 11 10 9 14 25 24 25 11
16 17 20 24 22 23 23 24 25 25 27 26 21 18 17 20 18 18 17 14 12 10 10 12 13 17 16 17 8 10 15 13 14 13 14 13 11 15 16 16 15 15 16 27 12
16 18 17 16 22 21 23 26 24 24 24 26 22 20 18 17 19 18 19 18 17 15 15 13 15 14 14 16 17 17 14 16 16 16 13 13 13 17 15 14 10 8 4 7 7
15 17 19 21 20 20 20 20 27 26 23 21 22 23 22 20 19 19 19 19 17 14 15 16 18 18 17 16 17 16 15 15 15 18 14 7 9 14 12 10 8 6 3 12 6
13 16 20 22 21 19 19 20 19 23 28 24 22 23 24 25 20 20 19 20 18 14 13 15 15 17 19 17 17 16 14 10 12 11 10 11 13 13 10 9 7 5 5 6 5
Wind_Direction
247 257 265 272 277 285 293 294 291 286 282 276 277 277 273 272 270 259 256 242 230 213 191 177 167 183 194 190 212 196 54 107 40 60 344 323 356 19 350 76 344 2 13 68 94
251 258 264 270 274 279 285 291 290 287 285 279 277 275 272 269 260 249 247 228 219 195 181 182 172 178 182 196 202 152 130 143 10 342 324 328 86 341 283 329 349 20 24 104 99
254 260 265 268 271 275 279 285 287 286 286 281 276 275 269 267 248 231 225 211 209 203 198 190 193 191 205 219 225 206 222 288 304 298 282 308 353 349 162 326 310 200 126 133 117
255 261 265 268 270 272 275 279 283 281 281 278 273 271 267 247 233 232 219 213 215 206 198 204 212 214 211 228 238 256 262 269 299 285 293 302 347 297 303 304 319 205 163 154 142
258 262 267 268 269 270 272 275 279 277 276 272 267 264 257 245 242 233 222 217 211 208 213 218 215 232 232 236 270 270 278 288 275 296 306 312 322 331 323 335 336 189 189 184 170
259 262 266 268 269 270 271 272 274 273 271 267 261 257 252 246 237 230 225 217 216 213 221 231 232 239 259 266 276 282 287 284 289 288 303 298 296 316 307 307 273 203 211 201 180
261 264 267 269 270 271 271 271 271 268 266 262 256 254 251 244 236 228 220 222 217 219 224 235 245 254 268 277 271 292 284 279 314 309 293 296 273 295 301 272 236 214 198 199 187
261 264 267 270 271 272 272 272 268 264 259 255 251 250 246 243 230 225 224 222 217 220 233 250 252 262 267 275 285 290 293 294 290 308 277 315 281 287 302 319 273 229 191 186 200
262 265 267 270 272 274 275 274 266 257 252 249 247 247 250 240 237 232 226 225 224 230 245 252 259 261 272 271 282 275 287 345 330 292 274 273 295 285 267 304 261 283 314 220 204
264 266 268 270 272 275 278 273 258 250 249 247 245 251 244 242 235 230 227 227 225 235 245 251 261 258 262 258 267 267 282 292 278 335 257 283 289 262 280 291 288 288 348 8 261
266 268 269 271 272 275 274 262 257 251 251 243 236 241 256 234 218 228 225 228 228 236 240 243 252 252 251 250 258 270 283 260 268 270 291 284 290 263 265 264 166 314 254 291 258
269 270 270 271 271 271 261 257 260 261 262 253 247 247 247 248 237 233 221 224 227 234 237 251 249 251 256 262 267 270 280 279 269 258 262 277 284 275 272 272 277 291 247 293 258
270 271 271 270 269 260 258 259 267 270 259 257 245 240 239 238 235 232 222 227 231 237 240 239 251 249 253 261 269 273 271 279 279 284 266 267 280 287 283 292 284 278 284 319 260
271 271 271 271 255 258 254 257 266 270 261 256 242 240 233 233 241 239 225 228 237 236 240 248 250 256 260 256 260 269 271 275 277 281 277 281 288 300 294 280 281 294 304 301 331
271 271 270 262 254 248 256 263 265 261 261 252 223 231 230 224 244 236 228 227 234 240 239 249 249 255 256 259 261 260 265 275 290 300 304 293 293 288 270 281 265 294 312 309 331
271 269 269 255 249 245 256 261 254 245 246 242 226 228 229 230 238 253 223 224 237 244 248 252 252 255 252 254 251 261 264 276 280 289 297 280 277 268 259 270 277 279 307 327 314
271 267 262 251 241 245 251 243 237 238 246 237 231 229 237 228 231 233 219 218 228 234 246 255 254 248 250 258 265 240 256 278 283 287 263 288 305 296 267 288 251 220 230 144 98
271 266 252 244 238 241 241 232 237 240 233 251 259 234 223 226 222 224 223 225 227 238 246 237 249 237 236 236 243 242 230 240 264 264 275 305 290 308 323 262 228 185 160 133 137
271 255 246 240 231 229 231 230 231 231 232 260 274 243 228 220 224 222 226 227 233 228 232 241 239 248 250 240 227 256 244 239 265 270 282 271 271 295 302 276 196 186 191 180 186
263 252 245 231 224 223 230 238 236 237 246 259 261 245 237 239 245 242 230 229 237 233 226 237 254 249 267 234 225 234 241 253 263 268 273 264 279 246 282 273 270 239 211 204 204
255 248 243 219 218 225 233 236 240 243 243 240 256 249 249 247 256 266 233 235 231 236 226 229 231 247 254 241 220 243 249 248 251 250 252 258 269 241 226 249 264 269 261 205 205
249 241 222 210 225 232 235 237 240 246 250 253 244 246 248 253 256 264 266 224 232 236 227 226 228 235 243 247 256 237 249 239 240 259 251 242 271 248 258 262 269 273 266 238 196
248 237 230 224 234 237 239 240 243 243 242 244 250 235 242 243 248 245 256 239 255 267 223 227 228 233 256 248 260 235 253 241 240 246 250 247 252 245 258 264 283 288 262 243 189
241 235 235 232 237 243 246 243 239 237 239 245 249 242 243 238 242 240 248 236 259 232 224 223 230 226 229 224 239 251 244 246 234 244 251 251 234 245 253 263 286 297 276 231 201
234 233 240 237 235 248 243 240 246 246 239 237 240 233 241 237 239 242 242 235 252 253 233 231 232 240 243 242 251 259 255 244 257 252 241 248 233 237 243 269 294 303 273 292 204
246 244 246 248 248 250 245 242 241 242 242 239 232 239 241 238 235 237 236 233 238 253 246 234 238 239 244 248 258 262 264 248 256 246 257 231 239 235 243 256 279 298 224 195 182
257 249 245 242 246 246 240 251 251 244 241 243 246 230 234 239 240 237 235 231 237 241 245 235 234 236 239 242 251 251 248 259 256 256 249 235 233 231 248 260 264 254 233 219 195